This is the latest recevied weather packets stored in our database for station/object N8AMF. If no packets are shown the sender has not sent any weather packets the latest 10 day(s).
| Time | Temp. | Humidity | Pressure | Rain* | Wind** | Luminosity | Snow |
|---|---|---|---|---|---|---|---|
| 1777736038 | 5.56° C | 76% | 1017.4 hPa | 0 mm | - | 354 W/m² | - |
| 1777735735 | 5.56° C | 75% | 1017.4 hPa | 0 mm | - | 278 W/m² | - |
| 1777735432 | 5.56° C | 76% | 1017.3 hPa | 0 mm | - | 265 W/m² | - |
| 1777735130 | 5.56° C | 74% | 1017.3 hPa | 0 mm | - | 279 W/m² | - |
| 1777734826 | 5.56° C | 75% | 1017.2 hPa | 0 mm | - | 343 W/m² | - |
| 1777734524 | 5.56° C | 77% | 1017.2 hPa | 0 mm | - | 449 W/m² | - |
| 1777734220 | 5.56° C | 79% | 1017.3 hPa | 0 mm | - | 483 W/m² | - |
| 1777733916 | 5° C | 80% | 1017.1 hPa | 0 mm | - | 353 W/m² | - |
| 1777733613 | 5° C | 81% | 1017.1 hPa | 0 mm | - | 424 W/m² | - |
| 1777733309 | 4.44° C | 84% | 1017 hPa | 0 mm | - | 329 W/m² | - |
| 1777733007 | 4.44° C | 87% | 1017 hPa | 0 mm | - | 333 W/m² | - |
| 1777732702 | 4.44° C | 88% | 1017.2 hPa | 0 mm | - | 234 W/m² | - |
| 1777732400 | 4.44° C | 90% | 1017.1 hPa | 0 mm | - | 354 W/m² | - |
| 1777732097 | 4.44° C | 91% | 1017 hPa | 0 mm | - | 354 W/m² | - |
| 1777731794 | 4.44° C | 93% | 1016.9 hPa | 0 mm | - | 272 W/m² | - |
| 1777731491 | 3.89° C | 93% | 1016.9 hPa | 0 mm | - | 310 W/m² | - |
| 1777731190 | 3.89° C | 94% | 1016.8 hPa | 0 mm | - | 275 W/m² | - |
| 1777730887 | 3.89° C | 94% | 1016.8 hPa | 0 mm | - | 207 W/m² | - |
| 1777730584 | 3.33° C | 95% | 1016.9 hPa | 0 mm | - | 201 W/m² | - |
| 1777730280 | 3.33° C | 95% | 1016.8 hPa | 0 mm | - | 207 W/m² | - |
| 1777729977 | 3.33° C | 95% | 1016.9 hPa | 0 mm | - | 219 W/m² | - |
| 1777729673 | 3.33° C | 95% | 1017 hPa | 0 mm | - | 209 W/m² | - |
| 1777729370 | 2.78° C | 95% | 1016.9 hPa | 0 mm | - | 174 W/m² | - |
| 1777729066 | 2.78° C | 95% | 1016.8 hPa | 0 mm | - | 163 W/m² | - |
| 1777728763 | 2.78° C | 96% | 1016.9 hPa | 0 mm | - | 165 W/m² | - |
* Rain latest hour (hover to see other rain measurements)
** Current wind speed in m/s (hover to see current wind gust speed)